TimeCDT,TemperatureF,Dew PointF,Humidity,Sea Level PressureIn,VisibilityMPH,Wind Direction,Wind SpeedMPH,Gust SpeedMPH,PrecipitationIn,Events,Conditions,WindDirDegrees,DateUTC
12:52 AM,82.9,75.9,79,30.01,10.0,South,9.2,-,N/A,,Partly Cloudy,180,2013-06-27 05:52:00
1:52 AM,82.9,75.9,79,30.00,10.0,South,8.1,-,N/A,,Clear,180,2013-06-27 06:52:00
2:52 AM,82.9,75.0,77,30.00,10.0,South,11.5,-,N/A,,Clear,180,2013-06-27 07:52:00
3:52 AM,82.9,75.9,79,30.00,10.0,South,8.1,-,N/A,,Clear,190,2013-06-27 08:52:00
4:52 AM,82.9,75.9,79,30.00,10.0,SSW,9.2,-,N/A,,Clear,200,2013-06-27 09:52:00
5:52 AM,82.9,77.0,82,30.00,10.0,SSW,8.1,-,N/A,,Clear,200,2013-06-27 10:52:00
6:52 AM,82.9,77.0,82,30.01,10.0,SSW,6.9,-,N/A,,Clear,200,2013-06-27 11:52:00
7:52 AM,84.9,77.0,77,30.02,10.0,SSW,6.9,-,N/A,,Partly Cloudy,210,2013-06-27 12:52:00
8:52 AM,87.1,75.9,69,30.04,10.0,SSW,9.2,-,N/A,,Scattered Clouds,210,2013-06-27 13:52:00
9:52 AM,89.1,75.9,65,30.04,10.0,SSW,10.4,-,N/A,,Scattered Clouds,200,2013-06-27 14:52:00
10:52 AM,89.1,75.0,63,30.04,10.0,South,10.4,-,N/A,,Scattered Clouds,180,2013-06-27 15:52:00
11:52 AM,90.0,77.0,65,30.02,10.0,South,9.2,-,N/A,,Scattered Clouds,190,2013-06-27 16:52:00
12:52 PM,90.0,75.9,63,30.01,10.0,South,11.5,-,N/A,,Scattered Clouds,180,2013-06-27 17:52:00
1:52 PM,90.0,75.9,63,30.00,10.0,South,15.0,-,N/A,,Partly Cloudy,180,2013-06-27 18:52:00
2:52 PM,90.0,75.9,63,29.98,10.0,South,12.7,-,N/A,,Partly Cloudy,170,2013-06-27 19:52:00
3:52 PM,90.0,75.9,63,29.97,10.0,South,15.0,-,N/A,,Clear,170,2013-06-27 20:52:00
4:52 PM,90.0,77.0,65,29.97,10.0,South,13.8,-,N/A,,Clear,170,2013-06-27 21:52:00
5:52 PM,88.0,75.9,67,29.96,10.0,South,12.7,-,N/A,,Clear,170,2013-06-27 22:52:00
6:52 PM,87.1,75.0,67,29.96,10.0,SSE,11.5,-,N/A,,Clear,160,2013-06-27 23:52:00
7:52 PM,86.0,75.0,70,29.96,10.0,South,12.7,-,N/A,,Clear,170,2013-06-28 00:52:00
8:52 PM,84.9,75.0,72,29.95,10.0,South,11.5,-,N/A,,Clear,180,2013-06-28 01:52:00
9:52 PM,84.0,75.9,76,29.95,10.0,South,10.4,-,N/A,,Clear,190,2013-06-28 02:52:00
10:52 PM,84.0,75.9,76,29.96,10.0,South,11.5,-,N/A,,Clear,190,2013-06-28 03:52:00
11:52 PM,84.0,75.9,76,29.97,10.0,South,10.4,-,N/A,,Clear,190,2013-06-28 04:52:00